• en Belgique
  • Liste des pays
  • À 7 jours
  • Température de l'eau
  • Carte satellitaire
  • Carte météo
  • Widgets météo
  • user-avatar
    Se connecter

    Météo par heure à Polevaya

    Ce jour, 23 Mai, Mercredi

    Heure Température Précipitation Vent Pression Humidité
    00:00 +14°C° 0 mm 1 m/s 755 mmHg 90%
    01:00 +13°C° 0 mm 1 m/s 755 mmHg 93%
    02:00 +13°C° 0 mm 1 m/s 755 mmHg 95%
    03:00 +13°C° 0 mm 1 m/s 755 mmHg 94%
    04:00 +13°C° 0 mm 1 m/s 755 mmHg 93%
    05:00 +14°C° 0 mm 1 m/s 755 mmHg 92%
    06:00 +15°C° 0 mm 1 m/s 755 mmHg 86%
    07:00 +17°C° 0 mm 2 m/s 755 mmHg 80%
    08:00 +18°C° 0 mm 2 m/s 755 mmHg 73%
    09:00 +19°C° 0,1 mm 2 m/s 755 mmHg 68%
    10:00 +20°C° 0,1 mm 3 m/s 754 mmHg 63%
    11:00 +21°C° 0,1 mm 3 m/s 754 mmHg 58%
    12:00 +22°C° 0 mm 3 m/s 754 mmHg 56%
    13:00 +22°C° 0 mm 4 m/s 754 mmHg 54%
    14:00 +23°C° 0 mm 4 m/s 754 mmHg 52%
    15:00 +24°C° 0 mm 3 m/s 754 mmHg 54%
    16:00 +22°C° 0 mm 3 m/s 754 mmHg 56%
    17:00 +23°C° 0 mm 2 m/s 753 mmHg 57%
    18:00 +20°C° 0 mm 2 m/s 754 mmHg 65%
    19:00 +19°C° 0 mm 1 m/s 754 mmHg 72%
    20:00 +16°C° 0 mm 1 m/s 754 mmHg 79%
    21:00 +15°C° 0 mm 1 m/s 754 mmHg 81%
    22:00 +14°C° 0 mm 0 m/s 754 mmHg 83%
    23:00 +13°C° 0 mm 0 m/s 754 mmHg 85%

    Demain, 24 Mai, Jeudi

    Heure Température Précipitation Vent Pression Humidité
    00:00 +13°C° 0 mm 0 m/s 754 mmHg 85%
    01:00 +13°C° 0 mm 0 m/s 754 mmHg 86%
    02:00 +13°C° 0 mm 1 m/s 754 mmHg 87%
    03:00 +14°C° 0 mm 1 m/s 754 mmHg 85%
    04:00 +14°C° 0 mm 1 m/s 754 mmHg 84%
    05:00 +15°C° 0 mm 1 m/s 754 mmHg 82%
    06:00 +18°C° 0 mm 1 m/s 754 mmHg 75%
    07:00 +19°C° 0 mm 1 m/s 754 mmHg 69%
    08:00 +20°C° 0 mm 2 m/s 755 mmHg 62%
    09:00 +21°C° 0 mm 2 m/s 755 mmHg 58%
    10:00 +23°C° 0 mm 2 m/s 755 mmHg 55%
    11:00 +22°C° 0 mm 3 m/s 755 mmHg 52%
    12:00 +24°C° 0,1 mm 3 m/s 755 mmHg 53%
    13:00 +24°C° 0,1 mm 3 m/s 754 mmHg 54%
    14:00 +23°C° 0,1 mm 4 m/s 754 mmHg 55%
    15:00 +22°C° 0,1 mm 4 m/s 754 mmHg 58%
    16:00 +21°C° 0,1 mm 4 m/s 755 mmHg 61%
    17:00 +20°C° 0,1 mm 4 m/s 755 mmHg 64%
    18:00 +19°C° 0 mm 4 m/s 755 mmHg 67%
    19:00 +17°C° 0 mm 4 m/s 755 mmHg 70%
    20:00 +14°C° 0 mm 3 m/s 756 mmHg 73%
    21:00 +13°C° 0 mm 3 m/s 756 mmHg 69%
    22:00 +12°C° 0 mm 3 m/s 756 mmHg 66%
    23:00 +11°C° 0 mm 3 m/s 757 mmHg 63%

    Après-demain, 25 Mai, Vendredi

    Heure Température Précipitation Vent Pression Humidité
    00:00 +10°C° 0 mm 3 m/s 757 mmHg 64%
    01:00 +9°C° 0 mm 3 m/s 758 mmHg 64%
    02:00 +8°C° 0 mm 3 m/s 758 mmHg 65%
    03:00 +8°C° 0 mm 3 m/s 758 mmHg 65%
    04:00 +9°C° 0 mm 3 m/s 759 mmHg 65%
    05:00 +9°C° 0 mm 3 m/s 759 mmHg 65%
    06:00 +11°C° 0 mm 3 m/s 759 mmHg 58%
    07:00 +12°C° 0 mm 4 m/s 760 mmHg 50%
    08:00 +14°C° 0 mm 4 m/s 760 mmHg 43%
    09:00 +15°C° 0 mm 4 m/s 760 mmHg 41%
    10:00 +15°C° 0 mm 4 m/s 760 mmHg 39%
    11:00 +17°C° 0 mm 4 m/s 761 mmHg 37%
    12:00 +18°C° 0 mm 4 m/s 761 mmHg 37%
    13:00 +18°C° 0 mm 4 m/s 761 mmHg 37%
    14:00 +19°C° 0 mm 4 m/s 760 mmHg 37%
    15:00 +18°C° 0 mm 3 m/s 760 mmHg 40%
    16:00 +18°C° 0 mm 3 m/s 760 mmHg 42%
    17:00 +18°C° 0 mm 3 m/s 760 mmHg 44%
    18:00 +16°C° 0 mm 2 m/s 761 mmHg 50%
    19:00 +14°C° 0 mm 2 m/s 761 mmHg 56%
    20:00 +12°C° 0 mm 1 m/s 761 mmHg 62%
    21:00 +11°C° 0 mm 1 m/s 761 mmHg 62%
    22:00 +11°C° 0 mm 1 m/s 761 mmHg 62%
    23:00 +9°C° 0 mm 2 m/s 762 mmHg 62%

    26 Mai, Samedi

    Heure Température Précipitation Vent Pression Humidité
    00:00 +9°C° 0 mm 2 m/s 762 mmHg 63%
    01:00 +9°C° 0 mm 2 m/s 762 mmHg 65%
    02:00 +8°C° 0 mm 2 m/s 762 mmHg 67%
    03:00 +9°C° 0 mm 2 m/s 762 mmHg 67%
    04:00 +10°C° 0 mm 2 m/s 762 mmHg 68%
    05:00 +10°C° 0 mm 3 m/s 763 mmHg 68%
    06:00 +12°C° 0 mm 3 m/s 763 mmHg 63%
    07:00 +16°C° 0 mm 3 m/s 763 mmHg 59%
    08:00 +18°C° 0 mm 3 m/s 763 mmHg 54%
    09:00 +19°C° 0 mm 3 m/s 763 mmHg 49%
    10:00 +21°C° 0 mm 3 m/s 763 mmHg 45%
    11:00 +22°C° 0 mm 3 m/s 763 mmHg 40%
    12:00 +24°C° 0 mm 3 m/s 762 mmHg 39%
    13:00 +24°C° 0 mm 3 m/s 762 mmHg 39%
    14:00 +25°C° 0 mm 3 m/s 762 mmHg 38%
    15:00 +24°C° 0 mm 3 m/s 761 mmHg 42%
    16:00 +24°C° 0 mm 3 m/s 761 mmHg 45%
    17:00 +24°C° 0 mm 2 m/s 761 mmHg 48%
    18:00 +21°C° 0 mm 2 m/s 761 mmHg 55%
    19:00 +19°C° 0 mm 2 m/s 760 mmHg 62%
    20:00 +16°C° 0 mm 2 m/s 760 mmHg 70%
    21:00 +16°C° 0 mm 2 m/s 760 mmHg 71%
    22:00 +15°C° 0 mm 2 m/s 760 mmHg 72%
    23:00 +13°C° 0 mm 3 m/s 760 mmHg 74%

    27 Mai, Dimanche

    Heure Température Précipitation Vent Pression Humidité
    00:00 +13°C° 0 mm 3 m/s 760 mmHg 76%
    01:00 +12°C° 0 mm 3 m/s 760 mmHg 77%
    02:00 +12°C° 0 mm 3 m/s 760 mmHg 79%
    03:00 +12°C° 0 mm 3 m/s 760 mmHg 78%
    04:00 +13°C° 0 mm 3 m/s 759 mmHg 77%
    05:00 +14°C° 0 mm 4 m/s 759 mmHg 75%
    06:00 +15°C° 0 mm 4 m/s 759 mmHg 71%
    07:00 +18°C° 0 mm 4 m/s 758 mmHg 66%
    08:00 +20°C° 0 mm 5 m/s 758 mmHg 62%
    09:00 +21°C° 0 mm 5 m/s 758 mmHg 58%
    10:00 +22°C° 0 mm 5 m/s 757 mmHg 53%
    11:00 +24°C° 0 mm 6 m/s 757 mmHg 49%
    12:00 +24°C° 0 mm 6 m/s 756 mmHg 50%
    13:00 +25°C° 0 mm 5 m/s 756 mmHg 50%
    14:00 +25°C° 0 mm 5 m/s 756 mmHg 51%
    15:00 +23°C° 0,1 mm 4 m/s 756 mmHg 55%
    16:00 +22°C° 0,1 mm 4 m/s 756 mmHg 58%
    17:00 +21°C° 0,1 mm 3 m/s 756 mmHg 62%
    18:00 +19°C° 0 mm 3 m/s 756 mmHg 65%
    19:00 +18°C° 0 mm 3 m/s 756 mmHg 67%
    20:00 +16°C° 0 mm 3 m/s 757 mmHg 70%
    21:00 +14°C° 0 mm 3 m/s 757 mmHg 70%
    22:00 +13°C° 0 mm 2 m/s 758 mmHg 70%
    23:00 +12°C° 0 mm 2 m/s 758 mmHg 70%

    28 Mai, Lundi

    Heure Température Précipitation Vent Pression Humidité
    00:00 +10°C° 0 mm 2 m/s 759 mmHg 68%
    01:00 +9°C° 0 mm 2 m/s 759 mmHg 66%
    02:00 +8°C° 0 mm 2 m/s 760 mmHg 64%
    03:00 +9°C° 0 mm 2 m/s 760 mmHg 63%
    04:00 +9°C° 0 mm 2 m/s 761 mmHg 62%
    05:00 +9°C° 0 mm 2 m/s 761 mmHg 62%
    06:00 +12°C° 0 mm 2 m/s 761 mmHg 54%
    07:00 +12°C° 0 mm 3 m/s 761 mmHg 47%
    08:00 +14°C° 0 mm 3 m/s 762 mmHg 40%
    09:00 +16°C° 0 mm 3 m/s 762 mmHg 38%
    10:00 +17°C° 0 mm 3 m/s 762 mmHg 36%
    11:00 +18°C° 0 mm 4 m/s 762 mmHg 35%
    12:00 +18°C° 0 mm 3 m/s 762 mmHg 35%
    13:00 +19°C° 0 mm 3 m/s 761 mmHg 35%
    14:00 +19°C° 0 mm 3 m/s 761 mmHg 35%
    15:00 +19°C° 0 mm 3 m/s 761 mmHg 38%
    16:00 +19°C° 0 mm 2 m/s 761 mmHg 40%
    17:00 +19°C° 0 mm 2 m/s 760 mmHg 43%
    18:00 +17°C° 0 mm 2 m/s 760 mmHg 49%
    19:00 +15°C° 0 mm 1 m/s 760 mmHg 55%
    20:00 +13°C° 0 mm 1 m/s 760 mmHg 61%
    21:00 +13°C° 0 mm 1 m/s 760 mmHg 61%
    22:00 +12°C° 0 mm 2 m/s 760 mmHg 62%
    23:00 +12°C° 0 mm 2 m/s 760 mmHg 62%
    Voir plus